Weather History for Naples, FL

Change the Weather History Date:

Thursday, December 13, 2012

  Actual Average Record
Temperature  
Mean Temperature 68 °F 67 °F  
Max Temperature 73 °F 77 °F 88 °F (1972)
Min Temperature 63 °F 57 °F 27 °F (1962)
Degree Days  
Heating Degree Days 0 2  
Month to date heating degree days 0 21  
Since 1 July heating degree days 13 35  
Cooling Degree Days 3 4  
Month to date cooling degree days 97 62  
Year to date cooling degree days 4063 3881  
Growing Degree Days 18 (Base 50)    
Moisture  
Dew Point 67 °F    
Average Humidity 89    
Maximum Humidity 100    
Minimum Humidity 78    
Precipitation  
Precipitation T in 0.05 in 0.71 in (2002)
Month to date precipitation 1.65 0.61  
Year to date precipitation 37.80 51.05  
Snow  
Snow 0.00 in - - ()
Month to date snowfall 0.0  
Since 1 July snowfall 0.0  
Snow Depth 0.00 in    
Sea Level Pressure  
Sea Level Pressure 30.09 in    
Wind  
Wind Speed 7 mph (North)    
Max Wind Speed 17 mph    
Max Gust Speed 23 mph    
Visibility 8 miles    
Events Rain    
T = Trace of Precipitation, MM = Missing Value Source: NWS Daily Summary

Daily Weather History Graph

Daily Weather History Graph

Search for Another Location

Airport:

Trip Planner

Search our weather history database for the weather conditions in past years. The results will help you decide how hot, cold, wet, or windy it might be!

Date:

Astronomy

Dec. 13, 2012 Rise Set
Actual Time 7:05 AM EST 5:37 PM EST
Civil Twilight 6:40 AM EST 6:02 PM EST
Nautical Twilight 6:11 AM EST 6:31 PM EST
Astronomical Twilight 5:43 AM EST 6:59 PM EST
Moon 7:14 AM EST (12/13) 6:15 PM EST (12/13)
Length of Visible Light 11h 21m
Length of Day
10h 31m
New Moon, 0% of the Moon is Illuminated
Dec 13
New Moon
Dec 20
First Quarter
Dec 28
Full
Jan 4
Last Quarter
Jan 11
New

Hourly Weather History & Observations

Time (EST) Temp. Dew Point Humidity Pressure Visibility Wind Dir Wind Speed Gust Speed Precip Events Conditions
12:53 AM 72.0 °F 72.0 °F 100% 30.06 in 7.0 mi Calm Calm - N/A   Clear
1:53 AM 72.0 °F 72.0 °F 100% 30.05 in 6.0 mi Calm Calm - N/A   Clear
2:20 AM 71.6 °F 71.6 °F 100% 30.05 in 5.0 mi Calm Calm - N/A   Mostly Cloudy
2:30 AM 71.6 °F 71.6 °F 100% 30.04 in 6.0 mi Calm Calm - N/A   Mostly Cloudy
2:53 AM 71.1 °F 71.1 °F 100% 30.03 in 2.5 mi Calm Calm - N/A   Partly Cloudy
3:02 AM 71.6 °F 71.6 °F 100% 30.03 in 5.0 mi SSE 3.5 mph - N/A   Clear
3:53 AM 71.1 °F 71.1 °F 100% 30.03 in 3.0 mi Calm Calm - N/A   Mostly Cloudy
4:53 AM 72.0 °F 72.0 °F 100% 30.04 in 7.0 mi WNW 6.9 mph - N/A   Overcast
4:57 AM 71.6 °F 71.6 °F 100% 30.05 in 6.0 mi NW 9.2 mph - 0.00 in Rain Light Rain
5:29 AM 69.8 °F 69.8 °F 100% 30.06 in 10.0 mi NW 9.2 mph - 0.00 in   Overcast
5:53 AM 70.0 °F 69.1 °F 97% 30.06 in 10.0 mi NW 8.1 mph - 0.00 in   Overcast
6:06 AM 69.8 °F 69.8 °F 100% 30.06 in 9.0 mi NW 6.9 mph - N/A   Overcast
6:18 AM 69.8 °F 69.8 °F 100% 30.06 in 9.0 mi NW 6.9 mph - N/A   Overcast
6:28 AM 69.8 °F 69.8 °F 100% 30.07 in 9.0 mi NNW 9.2 mph - N/A   Overcast
6:43 AM 69.8 °F 69.8 °F 100% 30.08 in 9.0 mi NNW 4.6 mph - N/A   Overcast
6:53 AM 70.0 °F 69.1 °F 97% 30.08 in 9.0 mi NNW 5.8 mph - N/A   Overcast
7:08 AM 69.8 °F 69.8 °F 100% 30.09 in 8.0 mi NNW 5.8 mph - N/A   Overcast
7:19 AM 69.8 °F 69.8 °F 100% 30.09 in 9.0 mi NNW 5.8 mph - N/A   Overcast
7:53 AM 70.0 °F 66.9 °F 90% 30.10 in 9.0 mi NNW 6.9 mph - N/A   Overcast
8:05 AM 69.8 °F 66.2 °F 88% 30.10 in 9.0 mi NNW 8.1 mph - N/A   Overcast
8:15 AM 69.8 °F 66.2 °F 88% 30.11 in 9.0 mi NNW 8.1 mph - N/A   Overcast
8:53 AM 70.0 °F 66.9 °F 90% 30.12 in 9.0 mi North 6.9 mph - N/A   Overcast
9:00 AM 69.8 °F 66.2 °F 88% 30.12 in 9.0 mi North 6.9 mph - N/A   Overcast
9:11 AM 69.8 °F 66.2 °F 88% 30.13 in 9.0 mi NNW 5.8 mph - N/A   Overcast
9:30 AM 69.8 °F 66.2 °F 88% 30.13 in 9.0 mi North 9.2 mph - N/A   Overcast
9:53 AM 71.1 °F 66.0 °F 84% 30.13 in 9.0 mi North 8.1 mph - N/A   Overcast
10:20 AM 71.6 °F 66.2 °F 83% 30.14 in 10.0 mi North 6.9 mph - N/A   Overcast
10:53 AM 71.1 °F 64.9 °F 81% 30.14 in 10.0 mi North 8.1 mph - N/A   Overcast
11:53 AM 72.0 °F 64.9 °F 78% 30.13 in 10.0 mi NNW 6.9 mph - N/A   Overcast
12:49 PM 71.6 °F 64.4 °F 78% 30.12 in 10.0 mi North 8.1 mph - N/A   Overcast
12:53 PM 72.0 °F 64.0 °F 76% 30.11 in 10.0 mi North 8.1 mph - N/A   Overcast
1:53 PM 71.1 °F 64.0 °F 78% 30.09 in 8.0 mi North 9.2 mph - N/A   Overcast
2:53 PM 70.0 °F 63.0 °F 78% 30.09 in 9.0 mi North 8.1 mph - N/A   Overcast
3:53 PM 70.0 °F 63.0 °F 78% 30.08 in 9.0 mi NNE 12.7 mph - N/A   Overcast
4:53 PM 70.0 °F 63.0 °F 78% 30.08 in 8.0 mi NNE 8.1 mph - N/A   Mostly Cloudy
8:53 PM 64.9 °F 60.1 °F 84% 30.13 in 10.0 mi NNE 8.1 mph - N/A   Overcast
9:35 PM 64.4 °F 60.8 °F 88% 30.14 in 10.0 mi NE 11.5 mph - N/A   Overcast
9:53 PM 64.0 °F 60.1 °F 87% 30.14 in 10.0 mi NE 9.2 mph - N/A   Overcast
10:53 PM 63.0 °F 59.0 °F 87% 30.13 in 10.0 mi NE 15.0 mph 23.0 mph N/A   Overcast
11:53 PM 63.0 °F 60.1 °F 90% 30.12 in 10.0 mi NE 10.4 mph - N/A   Overcast